STARLINK-4726, 53802

Orbit data source: Space-Track

STARLINK-4726, 53802 is a payload satellite owned by SpaceX/Seattle (US) in LEO that was launched on Sun, 11 Sep 2022 UTC via an FALCON 9 launch vehicle from the Air Force Eastern Test Range (AFETR). Payload-class satellites include a variety of spacecraft equipped with specific instruments for various scientific and technological missions. These include communications satellites like Starlink; space stations such as the ISS; scientific satellites like the Hubble; Earth observation satellites from companies like Planet Labs, Umbra, and HawkEye 360; GPS; miniature CubeSats for education and research; and military/defense satellites.

Loading next visibility...
Identifier
53802, 2022-111AF
Orbit
LEO
Last TLE update
13 hours ago
Origin
Manufacturer
SpaceX/Seattle
Mission
Operational Commercial Communications
Bus & Motor
STARLINK, Unknown motor
Mass
305 kg wet, ~290 kg dry
Launch date (UTC)
2022-09-11 (3 years ago)
Launch vehicle
FALCON 9
Launch site
Air Force Eastern Test Range (AFETR)
Object type
Payload
Rocket body
Debris
Shape & HBR
Box + 1 Pan, 8.86 m
Radar Cross Section
13.562 m², Large (>1 m²)

Expand to show TLE details & history

TLE from 13 hours ago
0 STARLINK-4726
1 53802U 22111AF  25181.81425741  .00001266  00000-0  97603-4 0  9998
2 53802  53.2193 314.7001 0001001  84.8703 275.2404 15.08842172155790
Epoch: 2025-06-30T19:32Z
TLE epoch observation values (Epoch: 2025-06-30T19:32:31.84Z)
Latitude
0.00004°
Longitude
102.4488°
Altitude
540.571 km
Speed
7.593 km/s
True Right ascension
20h 58m 48s
True Declination
0° 00' 00"
Sunlit
Object was in full shadow at epoch
Visualization orbit readout
Latitude
45.77635°
Longitude
-129.83602°
Altitude
544.006 km
Speed
7.596 km/s
Apparent Right ascension
06h 57m 46s
Apparent Declination
5° 28' 56"
Sunlit
Object is in daylight
Visualization observer readout
Local Sidereal Time
20:24:42
Azimuth
28.938° NE
Elevation
-40.385°
Doppler factor
1
Orbital elements
Apogee altitude
540.674 km
Perigee altitude
539.289 km
Semi-major axis
6,918.118 km
Eccentricity
0.0001
Inclination
53.2193°
RAAN
314.7001°
Arg. of periapsis
84.8703°
True anomaly
Unknown
Mean anomaly
275.2404°
Eccentric anomaly
Unknown
Mean motion
3.77191 °/min
Orbital period
95.44 mins
BSTAR
0.000097603
Loading maneuver chart data...
Loading SW <> Apogee altitude chart data...
Loading historical data...
Loading historical data...
Loading historical data...
Loading historical data...
Loading historical data...
Loading historical data...
Loading historical data...

STARLINK-4726 Visibility forecast

Observer location: undefined°, undefined°

Span
Click to sort rows by Start time (UTC) header in descending order
Start Az.
Max El. time (UTC)
Max El. Az.
Max El.
End time (UTC)
End Az.
6 mins2025-07-01 11:37:31.777Z227.13° WSW2025-07-01 11:40:31.777Z72.033° E44.694°2025-07-01 11:43:31.777Z50.787° ENE
4 mins2025-07-01 13:18:31.777Z305.879° NW2025-07-01 13:20:31.777Z346.059° N19.532°2025-07-01 13:22:31.777Z20.33° NNE
4 mins2025-07-01 16:39:31.777Z346.682° N2025-07-01 16:41:31.777Z23.568° NE18.427°2025-07-01 16:43:31.777Z58.623° ENE
6 mins2025-07-01 18:18:31.777Z313.439° NW2025-07-01 18:21:31.777Z93.016° ESE43.898°2025-07-01 18:24:31.777Z126.559° SE
|